Flag Weather past 2 weeks in Allentown, Pennsylvania, U.S.A.

Now
32 °F

Passing clouds.


Feels Like: 22 °F
Forecast: 20 / 33 °F
Wind: 14 mph from Northwest

Location: Lehigh Valley International Airport

Current Time: Nov 28, 2014 at 2:32:22 PM

Latest Report: Nov 28, 2014 at 1:51 PM


Visibility: 10 mi

Pressure: 30.22 "Hg

Humidity: 47%

Dew point: 14 °F

Location of AllentownLocation

Historic Weather in Allentown — Graph

°F

Allentown temperature yesterday

Maximum temperature yesterday: 37 °F (at 12:51 PM)
Minimum temperature yesterday: 24 °F (at 9:51 PM)
Average temperature yesterday: 33 °F

Past Weeks' High & Low Weather Summary

 TemperatureHumidityPressure
High71 °F (Nov 24, 12:51 PM)94% (Nov 24, 1:01 AM)30.52 "Hg (Nov 24, 1:01 AM)
Low16 °F (Nov 22, 2:51 AM)26% (Nov 23, 1:51 PM)29.53 "Hg (Nov 17, 3:51 PM)
Average36 °F61%30.07 "Hg
* Reported Nov 13 12:51 PM — Nov 28 12:51 PM, Allentown, Weather by CustomWeather, © 2014

Note: Actual official high and low records may vary slightly from our data, if they occured in-between our weather recording intervals... More about our weather records

Advertising

Allentown weather history for previous 24 hours

 ConditionsComfort  
Time TempWeatherWind HumidityBarometerVisibility
12:51 PM
Nov 28
32 °FSunny.17 mph43%30.22 "Hg10 mi
11:51 AM33 °FPartly sunny.17 mph43%30.22 "Hg10 mi
10:51 AM33 °FLight rain. Sunny.13 mph48%30.23 "Hg10 mi
9:51 AM33 °FLight rain. Broken clouds.8 mph58%30.24 "Hg10 mi
8:51 AM32 °FLight snow. Sunny.12 mph59%30.22 "Hg10 mi
7:51 AM30 °FSunny.8 mph69%30.20 "Hg10 mi
6:51 AM28 °FMostly cloudy.5 mph78%30.16 "Hg10 mi
5:51 AM26 °FPassing clouds.No wind81%30.14 "Hg10 mi
4:51 AM24 °FClear.6 mph84%30.12 "Hg10 mi
3:51 AM25 °FIce fog.5 mph92%30.11 "Hg6 mi
2:51 AM28 °FPassing clouds.3 mph81%30.11 "Hg10 mi
1:51 AM28 °FLight snow. Ice fog.No wind89%30.11 "Hg5 mi
12:51 AM25 °FMostly cloudy.No wind88%30.10 "Hg10 mi
11:51 PM
Nov 27
27 °FClear.6 mph81%30.10 "Hg10 mi
10:51 PM27 °FClear.3 mph85%30.11 "Hg10 mi
9:51 PM24 °FClear.No wind81%30.11 "Hg10 mi
8:51 PM26 °FClear.5 mph84%30.10 "Hg10 mi
7:51 PM30 °FClear.6 mph79%30.09 "Hg10 mi
6:51 PM31 °FClear.6 mph76%30.08 "Hg10 mi
5:51 PM34 °FPassing clouds.5 mph70%30.06 "Hg10 mi
4:51 PM35 °FPassing clouds.6 mph70%30.04 "Hg10 mi
3:51 PM36 °FOvercast.7 mph70%30.03 "Hg10 mi
2:51 PM35 °FPartly sunny.7 mph70%30.02 "Hg10 mi
Weather by CustomWeather, © 2014

See weather overviewHow to use our weather pages